SCP
0 0 -0 0 0 0 0 0 0 0 0 0 0 0 0 0 0 0 0 0 0 0 0 0 0 0 0 0 0 0 0 0 0 0 0 0 0 0 0 0 0 0 0 0
0 0 0 0 0 0 0 0 0 0 0 0 0 0 0 0 0 0 0 0 0 0 0 0 0 0 0 0 0 0 0 0 0 0 0 0 0 0 0 0 0 0 0 0
0 0 0 0 0 0 0 0 0 0 0 0 0 0 0 0 0 0 0 0 0 0 0 0 0 0 0 0 0 0 0 0 0 0 0 0 0 0 0 0 0 0 0 0
0 0 0 0 0 0 0 0 0 0 0 0 0 0 0 0 0 0 0 0 0 0 0 0 0 0 0 0 0 0 0 0 0 0 0 0 0 0 0 0 0 0 0 0
0 0 0 0 0 0 0 0 0 0 0 0 0 0 0 0 0 0 0 0 0 0 0 0 0 0 0 0 0 0 0 0 0 0 0 -0 -0 -0 0 0 0 0 0 -0
0 0 0 0 0 0 0 0 0 0 0 0 0 0 0 0 0 0 0 0 0 0 0 0 0 0 0 0 0 0 0 0 0 0 -0 -0 -0 -0 -0 0 0 0 -0 -0
0 0 0 0 0 0 0 0 0 0 0 0 0 0 0 0 0 0 0 0 0 0 0 0 0 0 0 0 0 0 0 0 0 0 -0 -0 -0 -0 -0 -0 -0 -0 -0 -0
0 0 0 0 0 0 0 0 0 0 0 0 0 0 0 0 0 0 0 0 0 0 0 0 0 0 0 0 0 0 0 0 0 0 0 0 0 -0 -0 -0 -0 -0 -0 -0
0 0 0 0 0 0 0 0 0 0 0 0 0 0 0 0 0 0 0 0 0 0 0 0 0 0 0 0 0 0 0 0 0 0 0 0 0 0 0 0 -0 0 0 0
0 0 0 0 0 0 0 0 0 0 0 0 0 0 0 0 0 0 0 0 0 0 0 0 0 0 0 0 0 0 0 0 0 0 0 0 0 0 0 0 0 0 0 0
0 0 0 0 0 0 0 0 0 0 0 0 0 0 0 0 0 0 0 0 0 0 0 0 0 0 0 0 0 0 0 0 0 0 0 0 0 0 0 0 0 0 0 0
0 0 0 0 0 0 0 0 0 0 0 0 0 0 0 0 0 0 0 0 0 0 0 0 0 0 0 0 0 0 0 0 0 0 0 0 0 0 0 0 0 0 -0 -0
0 0 0 0 0 0 0 0 0 0 0 0 0 0 0 0 0 0 0 0 0 0 0 0 0 0 0 0 -0 0 0 0 0 0 0 0 0 0 0 0 0 -0 -0 0
0 0 0 0 0 0 0 0 0 0 0 0 0 0 0 0 0 0 0 0 0 0 0 0 0 0 0 0 -0 -0 -0 -0 0 0 0 0 0 0 0 0 0 0 0 -0
0 0 0 0 0 0 0 0 0 0 0 0 0 0 0 0 0 0 0 0 0 0 0 0 0 0 0 0 -0 -0 -0 0 0 0 0 0 0 0 0 0 0 0 0 -0
0 0 0 0 0 0 0 0 0 0 0 0 0 0 0 0 0 0 0 -0 0 0 0 0 0 0 0 0 0 0 -0 -0 -0 -0 -0 -0 0 0 0 0 0 0 0 0
0 0 0 0 0 0 0 0 0 0 0 0 0 0 0 0 0 0 0 -0 0 0 0 0 0 0 0 0 0 -0 -0 -0 -0 -0 -0 0 0 0 0 0 0 0 0 0
0 0 0 0 0 0 0 0 0 0 0 0 0 0 0 0 0 0 0 -0 -0 0 0 -0 0 0 0 -0 -0 -0 0 -0 -0 -0 -0 0 0 0 0 0 0 0 0 0
0 0 0 0 0 0 0 0 0 0 0 0 0 0 0 0 0 0 0 0 -0 -0 -0 -0 0 0 0 0 0 0 0 0 -0 -0 -0 0 0 0 0 0 0 0 0 0
0 0 0 -0 -0 0 0 0 0 0 0 0 0 0 0 0 0 0 0 0 0 0 -0 0 0 0 0 0 0 0 0 0 0 0 0 0 0 0 0 0 0 0 0 0
0 0 0 -0 -0 0 0 0 0 0 0 0 0 0 0 0 0 0 0 0 0 0 -0 0 0 0 0 0 0 0 0 0 0 0 0 0 0 0 0 0 -0 0 0 0
0 0 0 0 0 0 0 0 0 0 0 0 0 0 0 0 0 0 0 0 0 0 0 0 0 0 0 0 0 0 0 0 0 0 0 0 0 0 0 0 0 0 0 0
0 0 0 0 0 0 0 0 0 0 0 0 0 0 0 0 0 0 0 0 0 0 0 0 0 0 0 0 0 -0 0 0 0 0 0 0 0 0 0 0 0 0 0 0
0 0 0 0 0 0 0 0 0 0 0 0 0 0 0 0 0 0 0 0 0 0 0 0 0 0 0 0 0 -0 -0 0 0 0 0 0 0 0 0 0 0 0 0 0
0 0 0 0 0 0 0 0 0 0 0 0 0 0 0 0 0 0 -0 0 -0 0 0 0 0 0 0 0 0 -0 0 0 0 0 0 0 0 0 0 0 0 0 0 0
0 0 0 0 0 0 0 0 0 0 0 0 0 0 0 0 0 -0 -0 0 -0 -0 0 0 0 0 0 0 -0 0 0 0 0 0 0 0 0 0 0 0 0 0 0 0
0 0 0 0 0 0 0 0 0 0 0 0 0 0 0 0 -0 -0 0 0 0 -0 0 0 0 0 0 0 -0 0 0 0 0 0 0 0 0 0 0 0 0 0 0 0
Wind_Speed_500mb
28 32 30 29 30 29 28 29 27 29 33 31 29 33 44 45 53 60 53 56 68 66 58 62 66 68 67 66 65 72 78 92 80 69 65 62 58 60 59 60 61 61 57 58
26 28 32 37 27 28 32 29 30 30 27 33 43 44 46 48 57 51 53 62 59 61 59 64 67 65 68 70 96 79 65 64 63 63 62 58 61 56 56 56 53 54 52 54
24 27 31 17 28 16 12 21 24 21 27 37 33 39 45 51 51 51 58 60 64 58 58 65 62 61 79 91 74 67 65 64 62 58 56 55 54 55 56 51 51 53 54 52
23 27 27 22 11 9 11 10 16 23 27 26 37 44 48 51 51 58 58 62 53 55 63 59 59 78 87 70 63 66 64 59 55 54 55 55 53 53 50 51 48 49 50 51
19 23 28 24 11 4 9 11 15 10 20 34 44 49 45 46 57 55 57 51 51 55 58 56 70 79 69 61 63 67 63 62 59 54 56 53 49 45 43 47 49 53 55 49
21 25 23 17 17 14 6 8 6 15 31 38 45 21 24 55 53 58 53 51 57 56 50 58 69 72 62 63 67 67 63 59 56 48 48 46 40 41 43 47 51 47 44 43
21 25 26 8 28 8 6 4 12 25 31 37 24 38 53 53 56 58 53 56 58 53 43 59 70 68 63 63 66 62 55 50 48 45 42 41 45 45 45 46 44 46 44 41
18 24 27 21 13 6 6 15 21 30 31 36 41 45 50 53 58 51 56 57 59 50 57 67 68 69 64 62 62 57 48 46 52 47 42 39 38 34 35 43 42 35 30 26
10 8 17 10 15 4 14 22 26 28 28 36 40 46 49 54 52 52 56 61 55 49 65 67 68 67 63 58 59 52 42 50 54 46 43 46 39 37 34 33 27 25 21 20
9 13 19 10 13 17 19 17 18 25 30 34 40 45 47 50 46 58 53 58 57 49 69 72 68 62 54 50 55 49 45 54 59 54 63 45 36 31 30 31 23 16 16 16
17 26 36 34 18 8 7 13 20 24 28 32 38 42 44 45 52 49 48 53 52 56 67 68 61 55 50 42 49 47 45 51 53 53 60 44 37 31 27 30 28 23 15 12
16 26 9 14 4 6 10 15 18 23 27 30 35 37 43 40 48 44 50 47 49 63 64 57 54 53 47 37 41 42 41 48 55 60 51 45 42 36 38 50 40 26 25 15
29 19 13 13 9 11 13 11 16 20 25 32 29 34 35 43 43 48 47 43 57 63 53 50 52 48 42 39 35 37 39 41 47 52 49 41 44 37 40 49 51 54 53 42
18 17 13 16 18 10 5 12 15 22 26 27 28 33 36 46 44 47 42 48 60 53 48 47 45 42 42 39 36 34 34 34 37 42 39 34 37 30 34 42 44 47 46 41
27 26 22 13 11 9 10 12 18 22 26 27 26 31 39 44 39 48 39 49 56 45 42 42 43 43 45 43 37 34 33 33 35 36 35 34 33 28 28 32 32 32 31 33
29 29 27 24 18 14 10 13 16 21 25 24 25 30 37 36 43 39 40 49 53 46 40 40 43 44 45 44 37 35 30 24 29 30 30 29 30 29 28 33 34 35 37 30
32 36 32 25 19 15 8 7 13 19 23 21 25 29 35 35 43 44 39 47 48 38 34 37 41 42 44 38 38 34 26 20 23 24 26 25 26 28 28 28 34 37 36 29
34 34 30 22 17 9 3 6 12 18 20 20 23 29 37 42 43 42 36 46 46 37 33 33 35 39 39 33 33 28 25 18 20 20 18 18 19 21 20 23 26 31 32 31
36 28 22 18 14 11 5 5 10 16 18 18 24 30 34 34 45 34 32 41 44 43 39 34 35 35 34 30 27 25 26 18 13 16 13 16 16 16 18 18 20 29 32 39
37 31 24 21 18 12 6 8 11 16 17 20 22 30 32 35 35 31 27 35 39 37 35 31 32 31 28 24 25 21 21 22 14 7 9 9 19 18 16 18 20 27 34 50
34 31 27 22 15 12 6 9 12 18 17 19 22 31 32 36 29 26 27 33 39 35 28 27 28 26 20 23 25 19 20 18 12 6 7 10 15 16 14 17 18 23 33 57
36 31 24 18 13 9 6 8 16 15 16 15 21 27 34 33 27 25 24 31 37 29 25 25 24 16 19 25 21 14 20 14 9 6 6 14 17 20 12 15 15 19 32 52
34 28 22 15 11 7 7 13 13 12 17 20 31 32 43 26 21 25 29 30 29 23 22 20 20 18 22 26 18 12 13 14 12 11 11 15 21 19 17 16 14 18 30 44
32 25 20 14 10 8 12 7 10 17 15 9 17 35 45 25 22 20 25 24 20 18 16 14 18 22 29 18 14 13 12 12 13 12 13 15 22 20 12 14 18 23 34 41
28 23 17 13 11 11 4 5 10 16 3 8 18 39 37 26 21 25 23 16 14 14 13 11 16 24 24 15 16 13 16 11 10 8 12 14 19 15 12 19 36 41 42 46
25 19 12 11 4 5 7 4 8 12 11 15 22 32 30 23 18 19 12 7 14 17 13 11 17 22 22 15 19 14 11 7 10 7 8 12 15 17 25 47 52 48 51 52
21 17 10 8 10 13 9 5 4 5 8 16 20 29 23 16 16 12 5 6 11 16 14 8 16 19 18 20 21 20 16 15 11 14 12 20 26 30 50 56 51 45 42 44
Wind_Direction_500mb
269 278 289 292 284 280 273 276 282 292 299 319 357 348 334 337 332 323 340 340 336 332 338 335 333 330 327 319 312 309 299 298 305 306 304 302 299 295 288 284 282 282 279 274
281 280 273 268 276 288 279 281 280 287 303 354 342 336 331 331 324 346 336 327 330 335 339 338 333 327 319 310 315 318 317 312 312 309 308 304 304 299 295 292 289 292 287 283
287 296 298 274 273 329 359 351 339 318 329 331 334 330 324 329 327 339 327 337 337 338 340 335 330 321 319 320 323 323 318 315 316 312 309 307 307 306 300 299 293 293 290 289
278 279 275 276 82 20 326 333 344 329 321 333 327 319 323 320 349 332 340 339 341 341 336 333 322 324 325 326 327 326 326 323 321 317 317 310 308 306 303 300 295 297 294 292
273 275 284 297 104 93 110 309 314 342 335 323 322 318 314 347 339 335 340 343 341 337 334 320 327 331 329 330 332 332 329 327 323 316 317 311 310 308 302 301 298 298 298 297
281 286 286 308 136 127 178 320 27 344 330 323 321 316 326 338 333 343 343 344 342 337 325 324 336 334 334 335 335 336 333 329 328 324 321 317 316 312 308 303 300 301 297 293
255 258 264 327 122 136 286 263 348 323 317 318 321 320 323 333 341 340 341 340 337 336 331 335 335 339 337 335 340 338 336 340 339 336 331 322 313 307 306 304 300 299 296 295
265 264 270 96 117 203 7 333 311 315 320 321 315 320 331 338 338 339 343 340 337 330 324 334 338 341 339 338 342 343 343 345 341 340 337 333 328 324 318 315 308 305 303 301
251 275 155 192 235 220 286 299 310 314 322 312 322 330 335 337 332 343 339 335 332 322 329 336 339 339 338 341 346 348 346 347 353 356 354 345 334 331 327 333 324 321 313 314
262 267 275 301 252 253 278 294 319 315 313 326 328 332 331 328 342 340 335 334 328 327 333 334 336 337 342 341 345 348 345 352 355 359 354 356 353 347 346 354 1 342 338 331
261 262 268 270 236 250 302 304 303 312 323 330 330 328 330 337 338 334 331 331 332 331 330 333 337 341 346 345 346 352 353 2 358 355 355 4 9 6 12 19 26 8 10 6
255 274 287 295 273 274 278 296 312 324 329 326 326 329 333 339 337 337 333 336 331 332 335 338 341 343 348 349 348 354 4 3 358 353 6 16 26 39 49 48 42 21 14 29
277 252 251 226 246 257 274 293 316 325 321 321 332 333 337 340 337 336 336 333 333 335 339 343 343 349 354 354 351 351 357 360 355 354 6 21 31 40 55 57 52 51 49 56
235 220 216 229 242 229 263 298 310 313 320 334 333 332 335 339 334 335 337 331 335 340 346 349 351 358 357 358 357 351 351 355 355 359 7 25 18 36 50 59 51 45 45 47
220 223 221 226 203 241 259 294 308 324 331 331 332 334 341 337 338 335 330 331 337 344 347 350 353 358 357 356 358 351 351 356 1 1 16 27 21 36 46 54 53 49 48 45
220 209 214 226 233 238 264 296 326 329 331 330 333 336 337 336 330 337 326 336 342 343 344 345 349 352 353 356 359 352 353 2 359 8 17 31 30 35 42 56 56 51 47 61
208 202 210 220 224 231 251 318 323 325 331 333 333 334 335 334 329 335 330 339 343 343 342 341 344 351 351 4 357 353 355 358 7 3 23 31 41 35 40 50 51 53 55 76
208 210 206 219 219 186 230 311 323 328 330 326 331 335 336 330 333 334 332 338 342 349 347 342 345 347 351 352 356 358 3 357 8 9 37 47 54 44 43 52 53 59 69 86
202 197 197 182 184 179 198 301 322 326 326 324 332 332 336 332 330 328 328 336 343 347 349 347 347 346 350 355 8 12 12 0 355 22 48 45 57 54 49 58 69 73 82 97
193 193 187 185 181 191 221 303 320 325 325 326 329 332 333 328 328 331 332 333 346 343 342 343 344 349 351 6 6 9 14 3 354 11 56 60 84 75 58 64 80 91 103 116
182 181 182 190 193 182 258 295 310 325 321 323 332 333 326 327 330 331 333 335 342 344 345 346 347 356 6 4 7 14 7 353 354 354 84 109 103 92 76 82 83 99 119 133
173 175 183 184 192 215 265 309 312 316 318 319 341 322 326 334 329 332 334 332 337 345 351 354 355 9 14 2 355 8 8 10 2 11 112 131 121 108 99 97 97 121 131 147
166 173 178 181 197 218 284 304 314 318 310 305 326 313 326 335 328 326 330 334 339 351 357 4 17 15 358 355 10 21 0 4 30 66 105 134 144 133 124 129 111 132 144 150
165 168 173 181 195 242 285 300 314 306 290 301 302 320 336 336 328 321 328 332 342 357 6 25 17 7 1 16 34 20 28 38 57 76 80 119 142 156 150 158 150 150 148 146
167 171 179 196 231 257 243 314 329 342 141 14 346 320 333 330 324 326 335 346 4 19 21 30 6 3 14 43 31 34 40 51 57 118 67 119 145 149 148 144 144 139 141 139
169 177 194 185 221 279 264 283 3 349 348 328 334 321 327 325 322 332 345 31 41 29 25 38 27 23 26 35 28 21 12 104 60 109 85 104 140 136 139 143 135 127 128 133
177 185 214 215 221 206 184 261 331 336 344 345 334 316 320 327 336 348 29 68 43 31 25 30 25 22 22 25 21 37 60 96 89 106 91 114 123 127 139 132 128 128 132 142
Wind_Speed_850mb
28 32 30 29 30 29 28 29 27 29 33 31 29 33 44 45 53 60 53 56 68 66 58 62 66 68 67 66 65 72 78 92 80 69 65 62 58 60 59 60 61 61 57 58
26 28 32 37 27 28 32 29 30 30 27 33 43 44 46 48 57 51 53 62 59 61 59 64 67 65 68 70 96 79 65 64 63 63 62 58 61 56 56 56 53 54 52 54
24 27 31 17 28 16 12 21 24 21 27 37 33 39 45 51 51 51 58 60 64 58 58 65 62 61 79 91 74 67 65 64 62 58 56 55 54 55 56 51 51 53 54 52
23 27 27 22 11 9 11 10 16 23 27 26 37 44 48 51 51 58 58 62 53 55 63 59 59 78 87 70 63 66 64 59 55 54 55 55 53 53 50 51 48 49 50 51
19 23 28 24 11 4 9 11 15 10 20 34 44 49 45 46 57 55 57 51 51 55 58 56 70 79 69 61 63 67 63 62 59 54 56 53 49 45 43 47 49 53 55 49
21 25 23 17 17 14 6 8 6 15 31 38 45 21 24 55 53 58 53 51 57 56 50 58 69 72 62 63 67 67 63 59 56 48 48 46 40 41 43 47 51 47 44 43
21 25 26 8 28 8 6 4 12 25 31 37 24 38 53 53 56 58 53 56 58 53 43 59 70 68 63 63 66 62 55 50 48 45 42 41 45 45 45 46 44 46 44 41
18 24 27 21 13 6 6 15 21 30 31 36 41 45 50 53 58 51 56 57 59 50 57 67 68 69 64 62 62 57 48 46 52 47 42 39 38 34 35 43 42 35 30 26
10 8 17 10 15 4 14 22 26 28 28 36 40 46 49 54 52 52 56 61 55 49 65 67 68 67 63 58 59 52 42 50 54 46 43 46 39 37 34 33 27 25 21 20
9 13 19 10 13 17 19 17 18 25 30 34 40 45 47 50 46 58 53 58 57 49 69 72 68 62 54 50 55 49 45 54 59 54 63 45 36 31 30 31 23 16 16 16
17 26 36 34 18 8 7 13 20 24 28 32 38 42 44 45 52 49 48 53 52 56 67 68 61 55 50 42 49 47 45 51 53 53 60 44 37 31 27 30 28 23 15 12
16 26 9 14 4 6 10 15 18 23 27 30 35 37 43 40 48 44 50 47 49 63 64 57 54 53 47 37 41 42 41 48 55 60 51 45 42 36 38 50 40 26 25 15
29 19 13 13 9 11 13 11 16 20 25 32 29 34 35 43 43 48 47 43 57 63 53 50 52 48 42 39 35 37 39 41 47 52 49 41 44 37 40 49 51 54 53 42
18 17 13 16 18 10 5 12 15 22 26 27 28 33 36 46 44 47 42 48 60 53 48 47 45 42 42 39 36 34 34 34 37 42 39 34 37 30 34 42 44 47 46 41
27 26 22 13 11 9 10 12 18 22 26 27 26 31 39 44 39 48 39 49 56 45 42 42 43 43 45 43 37 34 33 33 35 36 35 34 33 28 28 32 32 32 31 33
29 29 27 24 18 14 10 13 16 21 25 24 25 30 37 36 43 39 40 49 53 46 40 40 43 44 45 44 37 35 30 24 29 30 30 29 30 29 28 33 34 35 37 30
32 36 32 25 19 15 8 7 13 19 23 21 25 29 35 35 43 44 39 47 48 38 34 37 41 42 44 38 38 34 26 20 23 24 26 25 26 28 28 28 34 37 36 29
34 34 30 22 17 9 3 6 12 18 20 20 23 29 37 42 43 42 36 46 46 37 33 33 35 39 39 33 33 28 25 18 20 20 18 18 19 21 20 23 26 31 32 31
36 28 22 18 14 11 5 5 10 16 18 18 24 30 34 34 45 34 32 41 44 43 39 34 35 35 34 30 27 25 26 18 13 16 13 16 16 16 18 18 20 29 32 39
37 31 24 21 18 12 6 8 11 16 17 20 22 30 32 35 35 31 27 35 39 37 35 31 32 31 28 24 25 21 21 22 14 7 9 9 19 18 16 18 20 27 34 50
34 31 27 22 15 12 6 9 12 18 17 19 22 31 32 36 29 26 27 33 39 35 28 27 28 26 20 23 25 19 20 18 12 6 7 10 15 16 14 17 18 23 33 57
36 31 24 18 13 9 6 8 16 15 16 15 21 27 34 33 27 25 24 31 37 29 25 25 24 16 19 25 21 14 20 14 9 6 6 14 17 20 12 15 15 19 32 52
34 28 22 15 11 7 7 13 13 12 17 20 31 32 43 26 21 25 29 30 29 23 22 20 20 18 22 26 18 12 13 14 12 11 11 15 21 19 17 16 14 18 30 44
32 25 20 14 10 8 12 7 10 17 15 9 17 35 45 25 22 20 25 24 20 18 16 14 18 22 29 18 14 13 12 12 13 12 13 15 22 20 12 14 18 23 34 41
28 23 17 13 11 11 4 5 10 16 3 8 18 39 37 26 21 25 23 16 14 14 13 11 16 24 24 15 16 13 16 11 10 8 12 14 19 15 12 19 36 41 42 46
25 19 12 11 4 5 7 4 8 12 11 15 22 32 30 23 18 19 12 7 14 17 13 11 17 22 22 15 19 14 11 7 10 7 8 12 15 17 25 47 52 48 51 52
21 17 10 8 10 13 9 5 4 5 8 16 20 29 23 16 16 12 5 6 11 16 14 8 16 19 18 20 21 20 16 15 11 14 12 20 26 30 50 56 51 45 42 44
Wind_Direction_850mb
269 278 289 292 284 280 273 276 282 292 299 319 357 348 334 337 332 323 340 340 336 332 338 335 333 330 327 319 312 309 299 298 305 306 304 302 299 295 288 284 282 282 279 274
281 280 273 268 276 288 279 281 280 287 303 354 342 336 331 331 324 346 336 327 330 335 339 338 333 327 319 310 315 318 317 312 312 309 308 304 304 299 295 292 289 292 287 283
287 296 298 274 273 329 359 351 339 318 329 331 334 330 324 329 327 339 327 337 337 338 340 335 330 321 319 320 323 323 318 315 316 312 309 307 307 306 300 299 293 293 290 289
278 279 275 276 82 20 326 333 344 329 321 333 327 319 323 320 349 332 340 339 341 341 336 333 322 324 325 326 327 326 326 323 321 317 317 310 308 306 303 300 295 297 294 292
273 275 284 297 104 93 110 309 314 342 335 323 322 318 314 347 339 335 340 343 341 337 334 320 327 331 329 330 332 332 329 327 323 316 317 311 310 308 302 301 298 298 298 297
281 286 286 308 136 127 178 320 27 344 330 323 321 316 326 338 333 343 343 344 342 337 325 324 336 334 334 335 335 336 333 329 328 324 321 317 316 312 308 303 300 301 297 293
255 258 264 327 122 136 286 263 348 323 317 318 321 320 323 333 341 340 341 340 337 336 331 335 335 339 337 335 340 338 336 340 339 336 331 322 313 307 306 304 300 299 296 295
265 264 270 96 117 203 7 333 311 315 320 321 315 320 331 338 338 339 343 340 337 330 324 334 338 341 339 338 342 343 343 345 341 340 337 333 328 324 318 315 308 305 303 301
251 275 155 192 235 220 286 299 310 314 322 312 322 330 335 337 332 343 339 335 332 322 329 336 339 339 338 341 346 348 346 347 353 356 354 345 334 331 327 333 324 321 313 314
262 267 275 301 252 253 278 294 319 315 313 326 328 332 331 328 342 340 335 334 328 327 333 334 336 337 342 341 345 348 345 352 355 359 354 356 353 347 346 354 1 342 338 331
261 262 268 270 236 250 302 304 303 312 323 330 330 328 330 337 338 334 331 331 332 331 330 333 337 341 346 345 346 352 353 2 358 355 355 4 9 6 12 19 26 8 10 6
255 274 287 295 273 274 278 296 312 324 329 326 326 329 333 339 337 337 333 336 331 332 335 338 341 343 348 349 348 354 4 3 358 353 6 16 26 39 49 48 42 21 14 29
277 252 251 226 246 257 274 293 316 325 321 321 332 333 337 340 337 336 336 333 333 335 339 343 343 349 354 354 351 351 357 360 355 354 6 21 31 40 55 57 52 51 49 56
235 220 216 229 242 229 263 298 310 313 320 334 333 332 335 339 334 335 337 331 335 340 346 349 351 358 357 358 357 351 351 355 355 359 7 25 18 36 50 59 51 45 45 47
220 223 221 226 203 241 259 294 308 324 331 331 332 334 341 337 338 335 330 331 337 344 347 350 353 358 357 356 358 351 351 356 1 1 16 27 21 36 46 54 53 49 48 45
220 209 214 226 233 238 264 296 326 329 331 330 333 336 337 336 330 337 326 336 342 343 344 345 349 352 353 356 359 352 353 2 359 8 17 31 30 35 42 56 56 51 47 61
208 202 210 220 224 231 251 318 323 325 331 333 333 334 335 334 329 335 330 339 343 343 342 341 344 351 351 4 357 353 355 358 7 3 23 31 41 35 40 50 51 53 55 76
208 210 206 219 219 186 230 311 323 328 330 326 331 335 336 330 333 334 332 338 342 349 347 342 345 347 351 352 356 358 3 357 8 9 37 47 54 44 43 52 53 59 69 86
202 197 197 182 184 179 198 301 322 326 326 324 332 332 336 332 330 328 328 336 343 347 349 347 347 346 350 355 8 12 12 0 355 22 48 45 57 54 49 58 69 73 82 97
193 193 187 185 181 191 221 303 320 325 325 326 329 332 333 328 328 331 332 333 346 343 342 343 344 349 351 6 6 9 14 3 354 11 56 60 84 75 58 64 80 91 103 116
182 181 182 190 193 182 258 295 310 325 321 323 332 333 326 327 330 331 333 335 342 344 345 346 347 356 6 4 7 14 7 353 354 354 84 109 103 92 76 82 83 99 119 133
173 175 183 184 192 215 265 309 312 316 318 319 341 322 326 334 329 332 334 332 337 345 351 354 355 9 14 2 355 8 8 10 2 11 112 131 121 108 99 97 97 121 131 147
166 173 178 181 197 218 284 304 314 318 310 305 326 313 326 335 328 326 330 334 339 351 357 4 17 15 358 355 10 21 0 4 30 66 105 134 144 133 124 129 111 132 144 150
165 168 173 181 195 242 285 300 314 306 290 301 302 320 336 336 328 321 328 332 342 357 6 25 17 7 1 16 34 20 28 38 57 76 80 119 142 156 150 158 150 150 148 146
167 171 179 196 231 257 243 314 329 342 141 14 346 320 333 330 324 326 335 346 4 19 21 30 6 3 14 43 31 34 40 51 57 118 67 119 145 149 148 144 144 139 141 139
169 177 194 185 221 279 264 283 3 349 348 328 334 321 327 325 322 332 345 31 41 29 25 38 27 23 26 35 28 21 12 104 60 109 85 104 140 136 139 143 135 127 128 133
177 185 214 215 221 206 184 261 331 336 344 345 334 316 320 327 336 348 29 68 43 31 25 30 25 22 22 25 21 37 60 96 89 106 91 114 123 127 139 132 128 128 132 142